Theta_e
344 344 343 342 342 343 344 345 345 346 351 356 357 357 357 355 356 355 353 356 353 355 356 356 361 361 361 361 360 361 359 358 358
349 347 344 346 344 344 344 343 346 345 353 357 357 358 358 359 357 356 355 354 353 351 352 352 359 360 360 361 360 359 359 357 356
347 347 346 346 345 345 344 343 345 345 353 354 357 357 359 361 362 357 354 357 356 356 357 356 359 365 363 360 350 354 355 357 356
347 347 347 347 348 345 344 344 345 346 349 353 355 355 359 359 361 362 359 358 359 357 358 359 361 362 358 354 351 356 356 357 352
348 348 349 348 348 348 346 346 345 350 348 347 354 354 359 359 361 361 361 361 360 361 361 361 362 362 358 355 354 352 356 352 352
353 353 353 350 349 347 347 348 352 348 348 345 348 355 359 360 361 362 360 359 359 360 361 363 366 361 361 357 354 351 353 352 351
354 353 360 353 352 347 348 345 353 355 357 357 357 356 357 359 360 359 359 357 358 360 362 364 358 361 358 357 355 352 352 353 351
356 356 355 356 356 355 347 349 362 363 363 356 361 360 362 359 359 359 360 361 360 363 366 359 357 356 356 353 352 346 344 348 349
357 356 353 354 355 355 352 355 365 365 366 366 366 366 364 362 362 361 363 366 369 365 359 355 355 355 352 350 341 337 341 346 346
356 355 357 354 354 354 353 358 361 367 367 368 369 369 362 365 364 365 368 367 364 361 360 357 353 353 353 342 338 344 345 348 347
357 357 357 358 354 357 360 361 362 365 365 365 366 368 368 366 368 368 364 362 361 359 356 354 354 352 350 346 338 341 344 346 348
353 353 354 352 353 356 358 358 361 359 362 361 363 365 365 364 363 362 362 359 359 355 353 352 350 350 351 347 336 338 343 346 346
349 348 349 352 355 352 352 355 354 362 363 363 362 361 361 361 361 358 358 357 354 352 351 349 348 347 346 346 335 334 339 343 346
349 349 352 350 349 349 351 351 352 359 360 362 359 358 359 358 357 357 356 354 352 352 349 347 348 348 343 341 342 332 334 340 345
349 354 351 348 349 349 348 348 352 359 361 360 359 357 356 356 355 354 355 355 353 350 348 348 348 350 347 342 335 334 333 334 341
355 353 350 347 348 349 350 348 353 357 357 356 356 356 356 355 355 355 355 355 354 354 349 346 344 347 349 346 342 341 341 341 340
355 350 348 348 347 351 352 354 354 355 355 356 356 355 355 355 355 355 354 354 352 353 351 350 343 340 341 342 345 346 345 345 343
354 348 347 349 350 353 353 355 354 354 355 356 356 356 354 353 353 354 351 352 349 341 336 342 344 342 341 340 343 334 335 337 339
352 349 349 350 352 352 353 356 356 355 354 356 355 354 352 351 347 351 350 351 342 340 337 335 335 340 340 335 332 328 328 329 329
349 350 350 352 352 353 354 356 357 355 356 356 353 350 347 346 345 345 346 345 342 343 341 338 337 335 338 335 332 329 331 333 333
Wind_Speed
18 17 17 17 16 15 13 19 20 19 26 19 17 18 18 17 17 15 14 12 14 13 8 15 13 9 8 8 10 10 9 12 13
16 16 17 16 17 20 22 20 19 19 26 21 20 19 21 21 21 20 19 16 17 11 10 5 9 6 6 7 9 10 10 12 11
18 17 16 17 17 22 23 23 23 21 26 22 22 22 23 21 21 22 21 12 12 12 10 10 5 4 6 4 7 16 13 12 6
17 18 16 15 14 21 23 24 26 28 28 27 26 23 27 23 22 19 18 15 14 15 12 9 8 9 8 5 7 10 9 8 8
3 8 18 15 16 2 20 21 25 15 18 23 18 22 26 25 21 19 17 17 16 13 12 10 7 9 8 5 1 5 7 6 7
2 4 8 10 15 16 32 7 15 16 24 30 25 12 15 17 19 18 19 19 16 17 11 6 3 3 3 8 10 4 5 8 13
5 5 8 17 18 20 29 3 8 8 12 13 8 12 14 15 17 18 16 17 18 12 11 6 5 5 6 7 5 5 7 8 11
8 8 6 10 12 8 7 10 9 7 5 6 11 11 9 15 15 15 7 9 10 8 12 9 7 7 6 6 6 7 8 3 7
11 11 11 8 8 8 9 10 9 10 7 5 6 3 7 10 10 12 10 9 14 10 6 5 10 13 6 6 6 7 6 6 6
12 12 14 14 12 12 15 13 14 15 11 7 4 8 9 11 10 10 10 14 11 9 9 13 12 10 6 4 5 5 8 7 7
13 12 13 13 14 15 16 14 12 13 9 7 3 5 9 11 12 16 11 13 14 14 13 14 13 10 6 3 5 5 7 5 9
14 13 13 15 19 15 10 11 11 9 9 7 8 11 13 14 14 16 18 18 15 16 15 13 11 8 6 3 6 5 3 4 4
17 17 18 15 18 17 14 13 12 14 12 13 14 16 15 17 18 20 17 16 16 14 12 12 10 8 7 6 7 6 4 7 8
18 19 20 19 19 16 17 16 15 18 14 13 17 17 18 18 18 18 18 16 14 12 14 13 11 9 7 6 6 9 8 8 9
20 16 21 21 17 18 17 17 16 19 18 17 18 19 17 17 18 17 16 14 13 12 13 12 9 8 10 6 8 11 13 12 7
18 18 20 21 20 18 18 19 18 19 19 19 19 19 17 15 15 17 15 14 13 13 13 12 10 10 14 11 7 5 6 7 9
17 19 18 20 22 19 19 22 23 20 19 19 19 19 15 15 16 15 14 15 15 13 14 18 16 9 10 9 10 7 1 3 2
16 19 19 23 21 21 21 23 24 21 20 19 19 17 16 15 13 13 11 5 12 9 8 6 9 6 5 6 10 6 2 0 1
19 20 21 23 24 23 22 22 22 22 20 19 18 17 17 17 15 14 14 12 8 7 4 3 1 3 5 6 6 3 1 3 5
24 22 25 25 25 24 23 23 22 21 20 19 18 16 17 16 18 19 18 15 13 11 8 5 4 5 6 3 1 2 3 5 7
Wind_Direction
181 189 185 181 184 192 173 171 172 166 164 171 186 194 201 207 210 215 224 229 243 278 321 192 183 200 202 228 234 233 245 249 262
176 188 189 180 181 190 175 189 172 185 162 176 186 197 201 206 209 209 217 227 225 254 277 272 208 196 233 251 275 272 266 269 270
174 185 198 176 186 185 180 188 180 189 165 180 190 195 197 204 207 217 220 225 221 231 250 243 246 253 265 312 352 293 292 280 298
171 178 192 186 184 184 182 184 182 190 184 186 185 197 190 197 205 214 223 229 230 238 254 273 278 272 289 297 300 303 291 287 298
86 186 180 197 170 112 175 187 193 150 83 340 180 191 193 196 196 206 211 218 228 228 235 251 275 285 292 264 26 330 312 325 301
109 279 191 117 84 86 305 128 119 155 146 184 229 172 186 192 195 206 218 210 216 217 207 215 262 345 55 5 353 334 321 307 300
119 106 57 110 127 151 219 125 90 104 141 169 190 203 203 206 201 214 215 224 204 199 183 175 133 132 19 354 360 340 322 333 321
134 128 155 127 131 144 175 155 144 134 177 208 247 196 236 203 196 208 186 129 126 158 145 143 124 82 64 38 63 349 327 325 327
149 151 157 159 166 165 179 187 157 173 206 182 259 203 252 145 144 136 129 118 140 154 126 96 90 85 88 65 20 15 33 67 10
162 171 152 160 169 181 193 182 196 187 178 170 224 189 204 160 148 136 135 127 116 120 123 111 106 103 96 71 57 68 65 57 43
168 169 156 161 173 177 184 176 172 129 119 143 177 174 157 154 159 147 132 131 135 133 123 109 103 102 103 97 59 60 52 82 78
168 165 163 173 164 154 135 155 119 132 138 149 162 136 129 135 143 139 136 133 128 120 110 105 108 117 120 104 56 56 49 81 123
167 165 166 167 138 136 139 132 158 123 126 122 121 128 135 135 133 129 124 120 115 116 120 130 129 122 105 79 53 47 47 36 35
164 167 163 133 134 149 145 165 162 142 140 136 140 136 131 126 126 126 124 123 127 132 135 125 131 123 109 110 78 59 59 53 54
160 156 134 143 151 139 160 152 137 136 135 140 135 132 132 133 136 133 131 131 128 132 137 141 147 155 139 106 85 75 70 70 77
148 136 144 161 147 152 137 133 140 124 131 135 138 135 135 149 135 130 141 149 160 161 169 161 171 195 180 157 167 108 89 80 70
134 143 159 155 149 140 129 129 130 139 146 147 141 137 150 141 137 153 172 179 183 204 195 196 188 185 160 141 178 169 73 317 317
146 147 171 141 140 134 133 136 139 150 155 155 148 148 148 155 162 176 187 222 103 92 71 65 46 97 126 141 133 119 112 165 277
146 155 147 137 139 140 144 146 147 152 161 157 156 163 171 181 166 192 203 175 139 136 127 134 144 92 92 100 109 85 335 303 288
148 156 142 141 144 149 151 150 153 158 164 166 177 184 190 183 190 183 195 175 176 188 194 186 181 186 187 186 191 246 279 293 290